| time (UTC) | temp C | wind direction | speed KPH | gust KPH | rain 1hr cm | rain 24hr cm | rain mn cm | humidity % | barometer mb |
| 20260505080057 | 12 | 0 | 0.0 | 1.6 | 0.00 | 0.00 | 0.00 | 72 | 1009.4 |
| 20260505074558 | 12 | 0 | 0.0 | 4.8 | 0.00 | 0.00 | 0.00 | 71 | 1009.4 |
| 20260505073101 | 12 | 0 | 0.0 | 1.6 | 0.00 | 0.00 | 0.00 | 71 | 1009.4 |
| 20260505071600 | 12 | 0 | 0.0 | 4.8 | 0.00 | 0.00 | 0.00 | 70 | 1009.3 |
| 20260505070100 | 12 | 0 | 0.0 | 4.8 | 0.00 | 0.00 | 0.00 | 70 | 1009.5 |
| 20260505064558 | 12 | 0 | 0.0 | 4.8 | 0.00 | 0.00 | 0.00 | 69 | 1009.4 |
| 20260505063102 | 12 | 165 | 0.0 | 8.0 | 0.00 | 0.00 | 0.00 | 68 | 1009.4 |
| 20260505061602 | 13 | 0 | 0.0 | 8.0 | 0.00 | 0.00 | 0.00 | 67 | 1009.4 |
| 20260505054601 | 13 | 0 | 0.0 | 1.6 | 0.00 | 0.00 | 0.00 | 66 | 1009.5 |
| 20260505053103 | 13 | 0 | 0.0 | 3.2 | 0.00 | 0.00 | 0.00 | 65 | 1009.4 |
| 20260505051600 | 13 | 0 | 0.0 | 3.2 | 0.00 | 0.00 | 0.00 | 64 | 1009.5 |
| 20260505050126 | 13 | 0 | 0.0 | 1.6 | 0.00 | 0.00 | 0.00 | 63 | 1009.5 |
| 20260505041607 | 14 | 0 | 0.0 | 3.2 | 0.00 | 0.00 | 0.00 | 60 | 1009.6 |
| 20260505034557 | 15 | 0 | 0.0 | 3.2 | 0.00 | 0.00 | 0.00 | 57 | 1009.4 |
| 20260505033059 | 15 | 0 | 1.6 | 8.0 | 0.00 | 0.00 | 0.00 | 56 | 1009.4 |
| 20260505031601 | 15 | 202 | 1.6 | 20.9 | 0.00 | 0.00 | 0.00 | 55 | 1009.5 |
| 20260505030104 | 15 | 0 | 0.0 | 14.5 | 0.00 | 0.00 | 0.00 | 54 | 1009.4 |
| 20260505024559 | 15 | 67 | 0.0 | 8.0 | 0.00 | 0.00 | 0.00 | 53 | 1009.4 |
| 20260505023059 | 15 | 0 | 0.0 | 8.0 | 0.00 | 0.00 | 0.00 | 52 | 1009.2 |
| 20260505021557 | 16 | 0 | 0.0 | 6.4 | 0.00 | 0.00 | 0.00 | 51 | 1009.3 |
| 20260505020058 | 16 | 0 | 0.0 | 8.0 | 0.00 | 0.00 | 0.00 | 50 | 1009.4 |
| 20260505014618 | 16 | 167 | 1.6 | 17.7 | 0.00 | 0.00 | 0.00 | 50 | 1009.2 |
| 20260505013058 | 16 | 0 | 0.0 | 4.8 | 0.00 | 0.00 | 0.00 | 49 | 1009.0 |
| 20260505011605 | 16 | 242 | 0.0 | 9.7 | 0.00 | 0.00 | 0.00 | 49 | 1008.8 |
| 20260505010058 | 16 | 182 | 0.0 | 14.5 | 0.00 | 0.00 | 0.00 | 50 | 1008.5 |
| 20260505004557 | 17 | 0 | 1.6 | 11.3 | 0.00 | 0.00 | 0.00 | 49 | 1008.4 |
| 20260505003057 | 17 | 192 | 0.0 | 19.3 | 0.00 | 0.00 | 0.00 | 47 | 1008.0 |
| 20260505001624 | 18 | 0 | 1.6 | 22.5 | 0.00 | 0.00 | 0.00 | 45 | 1007.6 |
| 20260505000135 | 18 | 0 | 0.0 | 16.1 | 0.00 | 0.00 | 0.00 | 44 | 1007.0 |
| 20260504234614 | 19 | 200 | 1.6 | 20.9 | 0.00 | 0.00 | 0.00 | 42 | 1006.6 |
| 20260504233107 | 20 | 168 | 3.2 | 14.5 | 0.00 | 0.00 | 0.00 | 40 | 1006.4 |
| 20260504231558 | 21 | 242 | 1.6 | 16.1 | 0.00 | 0.00 | 0.00 | 36 | 1006.2 |
| 20260504230057 | 21 | 285 | 0.0 | 11.3 | 0.00 | 0.00 | 0.00 | 32 | 1005.8 |
| 20260504224610 | 22 | 211 | 1.6 | 9.7 | 0.00 | 0.00 | 0.00 | 31 | 1005.6 |
| 20260504223058 | 22 | 284 | 0.0 | 14.5 | 0.00 | 0.00 | 0.00 | 31 | 1005.6 |
| 20260504221600 | 22 | 0 | 1.6 | 17.7 | 0.00 | 0.00 | 0.00 | 31 | 1005.6 |
| 20260504220101 | 22 | 233 | 1.6 | 16.1 | 0.00 | 0.00 | 0.00 | 31 | 1005.5 |
| 20260504214604 | 22 | 0 | 0.0 | 12.9 | 0.00 | 0.00 | 0.00 | 32 | 1005.6 |
| 20260504213146 | 22 | 179 | 1.6 | 11.3 | 0.00 | 0.00 | 0.00 | 30 | 1005.5 |
| 20260504211606 | 22 | 0 | 1.6 | 12.9 | 0.00 | 0.00 | 0.00 | 30 | 1005.4 |
| 20260504210058 | 23 | 229 | 3.2 | 16.1 | 0.00 | 0.00 | 0.00 | 27 | 1005.6 |
| 20260504204603 | 24 | 0 | 3.2 | 17.7 | 0.00 | 0.00 | 0.00 | 29 | 1005.6 |
| 20260504203121 | 24 | 0 | 4.8 | 16.1 | 0.00 | 0.00 | 0.00 | 27 | 1005.7 |
| 20260504201558 | 24 | 0 | 4.8 | 16.1 | 0.00 | 0.00 | 0.00 | 26 | 1005.8 |
| 20260504200058 | 24 | 247 | 0.0 | 17.7 | 0.00 | 0.00 | 0.00 | 28 | 1005.7 |
| 20260504194608 | 24 | 0 | 1.6 | 14.5 | 0.00 | 0.00 | 0.00 | 28 | 1005.7 |
| 20260504193111 | 24 | 196 | 3.2 | 16.1 | 0.00 | 0.00 | 0.00 | 29 | 1005.6 |
| 20260504191557 | 23 | 207 | 3.2 | 19.3 | 0.00 | 0.00 | 0.00 | 28 | 1005.7 |
| 20260504190116 | 24 | 199 | 4.8 | 20.9 | 0.00 | 0.00 | 0.00 | 26 | 1005.9 |
| 20260504184607 | 24 | 234 | 1.6 | 24.1 | 0.00 | 0.03 | 0.00 | 28 | 1005.9 |
| 20260504183059 | 23 | 0 | 3.2 | 27.4 | 0.00 | 0.03 | 0.00 | 28 | 1005.9 |
| 20260504181603 | 24 | 247 | 3.2 | 12.9 | 0.00 | 0.03 | 0.00 | 28 | 1006.0 |
| 20260504180100 | 23 | 220 | 3.2 | 25.7 | 0.00 | 0.03 | 0.00 | 30 | 1006.4 |
| 20260504174612 | 23 | 215 | 3.2 | 17.7 | 0.00 | 0.03 | 0.00 | 29 | 1006.2 |
| 20260504173109 | 23 | 219 | 3.2 | 24.1 | 0.00 | 0.03 | 0.00 | 31 | 1006.7 |
| 20260504171557 | 23 | 236 | 3.2 | 19.3 | 0.00 | 0.03 | 0.00 | 29 | 1006.5 |
| 20260504140109 | 19 | 0 | 1.6 | 16.1 | 0.00 | 0.08 | 0.00 | 37 | 1008.4 |
| 20260504110119 | 9 | 0 | 0.0 | 0.0 | 0.00 | 0.08 | 0.00 | 59 | 1009.8 |
| 20260504100105 | 8 | 0 | 0.0 | 9.7 | 0.00 | 0.08 | 0.00 | 60 | 1009.6 |
| 20260504090120 | 7 | 0 | 0.0 | 0.0 | 0.00 | 0.08 | 0.00 | 65 | 1009.5 |
| 20260504081608 | 6 | 0 | 0.0 | 0.0 | 0.00 | 0.08 | 0.00 | 68 | 1009.6 |